This is the latest recevied weather packets stored in our database for station/object N4AR. If no packets are shown the sender has not sent any weather packets the latest 10 day(s).
| Time | Temp. | Humidity | Pressure | Rain* | Wind** | Luminosity | Snow |
|---|---|---|---|---|---|---|---|
| 1777811216 | 10° C | 51% | 1017.7 hPa | 0 mm | - | 204 W/m² | - |
| 1777810914 | 10° C | 52% | 1017.8 hPa | 0 mm | - | 51 W/m² | - |
| 1777810610 | 10° C | 52% | 1017.6 hPa | 0 mm | - | 50 W/m² | - |
| 1777810307 | 10° C | 52% | 1017.6 hPa | 0 mm | - | 43 W/m² | - |
| 1777810003 | 9.44° C | 53% | 1017.6 hPa | 0 mm | - | 62 W/m² | - |
| 1777809701 | 9.44° C | 55% | 1017.4 hPa | 0 mm | - | 35 W/m² | - |
| 1777809398 | 9.44° C | 53% | 1017.3 hPa | 0 mm | - | 34 W/m² | - |
| 1777809096 | 9.44° C | 55% | 1017.4 hPa | 0 mm | - | 33 W/m² | - |
| 1777808793 | 9.44° C | 55% | 1017.3 hPa | 0 mm | - | 32 W/m² | - |
| 1777808490 | 9.44° C | 55% | 1017.2 hPa | 0 mm | - | 31 W/m² | - |
| 1777808188 | 9.44° C | 55% | 1017.2 hPa | 0 mm | - | 31 W/m² | - |
| 1777807886 | 9.44° C | 54% | 1017.2 hPa | 0 mm | - | 29 W/m² | - |
| 1777807584 | 9.44° C | 54% | 1017.3 hPa | 0 mm | - | 29 W/m² | - |
| 1777807280 | 9.44° C | 54% | 1017.2 hPa | 0 mm | - | 27 W/m² | - |
| 1777806976 | 9.44° C | 53% | 1017 hPa | 0 mm | - | 28 W/m² | - |
| 1777806673 | 9.44° C | 52% | 1017.2 hPa | 0 mm | - | 26 W/m² | - |
| 1777806369 | 9.44° C | 52% | 1017 hPa | 0 mm | - | 24 W/m² | - |
| 1777806066 | 9.44° C | 53% | 1016.9 hPa | 0 mm | - | 22 W/m² | - |
| 1777805762 | 9.44° C | 51% | 1016.9 hPa | 0 mm | - | 22 W/m² | - |
| 1777805460 | 9.44° C | 51% | 1016.6 hPa | 0 mm | - | 18 W/m² | - |
| 1777805158 | 9.44° C | 50% | 1016.6 hPa | 0 mm | - | 16 W/m² | - |
| 1777804855 | 9.44° C | 51% | 1016.5 hPa | 0 mm | - | 13 W/m² | - |
| 1777804553 | 10° C | 52% | 1016.4 hPa | 0 mm | - | 9 W/m² | - |
| 1777804250 | 10° C | 52% | 1016.2 hPa | 0 mm | - | 5 W/m² | - |
| 1777803947 | 10° C | 52% | 1016.1 hPa | 0 mm | - | 2 W/m² | - |
* Rain latest hour (hover to see other rain measurements)
** Current wind speed in m/s (hover to see current wind gust speed)